Location: Rancho Del Sol Observatory
(38.7214°N, 120.6350°W)
Time: 13:04:32
(UTC-08:00)

Courier 1B Rocket - Pass Details

Date: 27 January 2020
Orbit: 920 x 1202 km, 28.2° (Epoch: 19 February)

Event Time Altitude Azimuth Distance (km) Brightness Sun altitude
Rises 15:19:44 0° 261° (W) 3,790 9.0 18.4°
Reaches altitude 10° 15:23:22 10° 244° (WSW) 2,779 9.2 17.9°
Maximum altitude 15:27:45 18° 202° (SSW) 2,165 8.3 17.3°
Drops below altitude 10° 15:31:59 10° 161° (SSE) 2,662 7.7 16.7°
Sets 15:35:23 0° 143° (SE) 3,572 8.0 16.2°
